Location: Unspecified
(0.0000°N, 0.0000°E)
Time: 18:07:27
(UTC+00:00)

COSMOS 2416 - Pass Details

Date: 21 May 2026
Orbit: 1436 x 1449 km, 82.5° (Epoch: 10 June)

Event Time Altitude Azimuth Distance (km) Brightness Sun altitude
Rises 18:59:04 0° 327° (NNW) 4,518 10.2 -14.6°
Reaches altitude 10° 19:02:47 10° 312° (NW) 3,541 9.8 -15.5°
Maximum altitude 19:08:41 21° 267° (W) 2,778 9.0 -16.9°
Drops below altitude 10° 19:14:37 10° 221° (SW) 3,545 9.0 -18.2°
Sets 19:18:25 0° 206° (SSW) 4,525 9.3 -19.1°
